Fountain Dale, PA

3:05 AM EDT on March 23, 2017 (GMT -0400)
Fountain Dale

Weather History for KRYT - May, 2013

Change the Weather History Date:

Sunday, May 19, 2013

  Actual Average (KHGR) Record (KHGR)
Temperature  
Mean Temperature 63 °F -  
Max Temperature 70 °F 70 °F 89 °F (1997)
Min Temperature 57 °F 51 °F 36 °F (2002)
Degree Days  
Heating Degree Days 2    
Growing Degree Days 13 (Base 50)    
Moisture  
Dew Point 59 °F    
Average Humidity 91    
Maximum Humidity 100    
Minimum Humidity 78    
Precipitation  
Precipitation 0.06 in - - ()
Sea Level Pressure  
Sea Level Pressure 30.16 in    
Wind  
Wind Speed 1 mph (NE)    
Max Wind Speed 5 mph    
Max Gust Speed -    
Visibility 3 miles    
Events Fog    
Averages and records for this station are not official NWS values.
T = Trace of Precipitation, MM = Missing Value Source: NWS Daily Summary

Daily Weather History Graph

Daily Weather History Graph

Search for Another Location

Airport or City:

Trip Planner

Search our weather history database for the weather conditions in past years. The results will help you decide how hot, cold, wet, or windy it might be!

Date:

Astronomy

May. 19, 2013 Rise Set
Actual Time 5:51 AM EDT 8:21 PM EDT
Civil Twilight 5:20 AM EDT 8:52 PM EDT
Nautical Twilight 4:42 AM EDT 9:30 PM EDT
Astronomical Twilight 3:59 AM EDT 10:13 PM EDT
Moon 2:24 PM EDT (5/19) 2:13 AM EDT (5/19)
Length of Visible Light 15h 31m
Length of Day
14h 29m
Waxing Gibbous, 65% of the Moon is Illuminated
May 19
Waxing Gibbous
May 25
Full
May 31
Last Quarter
Jun 8
New
Jun 16
First Quarter

Hourly Weather History & Observations

Time (EDT) Temp. Dew Point Humidity Pressure Visibility Wind Dir Wind Speed Gust Speed Precip Events Conditions
12:23 AM 57.2 °F 55.4 °F 94% 30.21 in 0.5 mi Calm Calm - N/A Fog Fog
12:53 AM 57.0 °F 55.0 °F 93% 30.20 in 0.8 mi Calm Calm - 0.01 in   Mist
1:53 AM 57.0 °F 55.0 °F 93% 30.19 in 1.0 mi Calm Calm - N/A   Mist
2:02 AM 57.2 °F 55.4 °F 94% 30.20 in 0.5 mi Calm Calm - N/A Fog Fog
2:41 AM 57.2 °F 55.4 °F 94% 30.19 in 1.0 mi Calm Calm - 0.01 in   Overcast
2:53 AM 57.0 °F 55.9 °F 96% 30.18 in 1.2 mi Calm Calm - 0.01 in   Overcast
3:53 AM 57.9 °F 55.9 °F 93% 30.17 in 0.8 mi Calm Calm - 0.01 in   Mist
4:25 AM 57.2 °F 55.4 °F 94% 30.17 in 0.2 mi Calm Calm - N/A Fog Fog
4:53 AM 57.9 °F 55.9 °F 93% 30.16 in 0.5 mi Calm Calm - N/A Fog Fog
5:34 AM 57.2 °F 55.4 °F 94% 30.17 in 0.2 mi NNE 3.5 mph - N/A Fog Fog
5:53 AM 57.9 °F 55.9 °F 93% 30.16 in 0.5 mi NNE 4.6 mph - N/A Fog Fog
6:53 AM 57.9 °F 55.9 °F 93% 30.17 in 0.5 mi Calm Calm - 0.01 in Fog Fog
7:18 AM 57.2 °F 55.4 °F 94% 30.19 in 0.2 mi Calm Calm - N/A Fog Fog
7:53 AM 57.9 °F 55.9 °F 93% 30.19 in 0.2 mi NE 3.5 mph - N/A Fog Fog
8:16 AM 57.2 °F 57.2 °F 100% 30.20 in 0.5 mi Calm Calm - 0.01 in Fog Fog
8:53 AM 59.0 °F 57.0 °F 93% 30.21 in 0.8 mi Calm Calm - 0.01 in   Overcast
9:20 AM 59.0 °F 57.2 °F 94% 30.21 in 0.8 mi Variable 3.5 mph - N/A   Overcast
9:53 AM 60.1 °F 57.9 °F 93% 30.20 in 0.8 mi NE 3.5 mph - N/A   Overcast
10:12 AM 60.8 °F 57.2 °F 88% 30.21 in 1.0 mi NNE 3.5 mph - N/A   Overcast
10:53 AM 60.1 °F 57.9 °F 93% 30.20 in 1.0 mi Calm Calm - N/A   Overcast
11:41 AM 62.6 °F 60.8 °F 94% 30.19 in 1.0 mi Variable 4.6 mph - N/A   Overcast
11:53 AM 61.0 °F 59.0 °F 93% 30.18 in 0.8 mi Variable 3.5 mph - N/A   Overcast
12:53 PM 62.1 °F 60.1 °F 93% 30.18 in 1.5 mi Calm Calm - N/A   Overcast
1:18 PM 62.6 °F 60.8 °F 94% 30.18 in 6.0 mi Calm Calm - N/A   Overcast
1:53 PM 63.0 °F 60.1 °F 90% 30.16 in 5.0 mi Calm Calm - N/A   Overcast
2:34 PM 64.4 °F 60.8 °F 88% 30.14 in 6.0 mi Calm Calm - N/A   Overcast
2:53 PM 64.9 °F 61.0 °F 87% 30.13 in 7.0 mi Calm Calm - N/A   Overcast
3:27 PM 66.2 °F 60.8 °F 83% 30.13 in 7.0 mi Calm Calm - N/A   Overcast
3:53 PM 66.0 °F 62.1 °F 87% 30.11 in 7.0 mi Calm Calm - N/A   Overcast
4:53 PM 66.9 °F 62.1 °F 84% 30.10 in 7.0 mi Calm Calm - N/A   Overcast
5:22 PM 68.0 °F 62.6 °F 83% 30.12 in 7.0 mi Calm Calm - N/A   Overcast
5:53 PM 68.0 °F 63.0 °F 84% 30.10 in 7.0 mi Calm Calm - N/A   Overcast
6:37 PM 69.8 °F 62.6 °F 78% 30.11 in 8.0 mi Calm Calm - N/A   Overcast
6:53 PM 68.0 °F 63.0 °F 84% 30.09 in 7.0 mi NE 3.5 mph - N/A   Overcast
7:53 PM 66.9 °F 62.1 °F 84% 30.09 in 4.0 mi Calm Calm - N/A   Haze
8:07 PM 66.2 °F 62.6 °F 88% 30.11 in 4.0 mi Calm Calm - N/A   Haze
8:45 PM 66.2 °F 62.6 °F 88% 30.12 in 5.0 mi Calm Calm - N/A   Overcast
8:53 PM 66.0 °F 62.1 °F 87% 30.11 in 5.0 mi Calm Calm - N/A   Overcast
9:53 PM 64.9 °F 62.1 °F 90% 30.12 in 5.0 mi Calm Calm - N/A   Overcast
10:53 PM 64.9 °F 62.1 °F 90% 30.13 in 3.0 mi Calm Calm - N/A   Overcast
11:11 PM 64.4 °F 62.6 °F 94% 30.14 in 2.5 mi Calm Calm - N/A   Overcast
11:23 PM 64.4 °F 62.6 °F 94% 30.14 in 2.5 mi Calm Calm - N/A   Overcast
11:53 PM 64.0 °F 62.1 °F 93% 30.12 in 1.8 mi Calm Calm - 0.01 in   Overcast